Volver al catálogo

SL-6 DEB *

ActivoHEO
NORAD 48261·DEBRIS·🇷🇺 Russia

Lanzado Jul 18, 1980 desde Plesetsk Cosmodrome

Loading…

Próximos Pases (próximas 24 horas)

TLE

ActualizadoSource: Space-Track

Época: Sep 13, 2026, 08:15 UTC

1 48261U 80063E   26256.34406387 -.00000195  00000-0  89871-2 0  9995
2 48261  64.1117 331.9321 7089174 283.7022  12.2375  2.11471381 98875

Sigue SL-6 DEB * en tiempo real con AllMySat

Download on the App Store